Location: CNYAC Observatory
(43.2150°N, 74.9500°W)
Time: 17:25:06
(UTC-05:00)

Cosmos 1975 Rocket - Pass Details

Date: 29 June 2018
Orbit: 604 x 634 km, 82.5° (Epoch: 19 November)

Event Time Altitude Azimuth Distance (km) Brightness Sun altitude
Rises 03:44:56 0° 356° (N) 2,939 7.3 -13.9°
Reaches altitude 10° 03:47:14 10° 1° (N) 2,027 6.5 -13.6°
Maximum altitude 03:51:39 55° 79° (E) 767 3.8 -13.1°
Drops below altitude 10° 03:56:02 10° 157° (SSE) 2,009 5.4 -12.6°
Sets 03:58:17 0° 162° (SSE) 2,910 6.2 -12.3°
